Location: Moscow
(55.7500°N, 37.5830°E)
Time: 07:44:18
(UTC+03:00)

A-11 Canister half - Pass Details

Date: 08 December 2021
Orbit: 1524 x 1684 km, 47.3° (Epoch: 17 January)

Event Time Altitude Azimuth Distance (km) Brightness Sun altitude
Exits shadow 03:01:58 36° 118° (ESE) 2,443 10.1 -45.7°
Drops below altitude 10° 03:07:34 10° 98° (E) 3,891 11.5 -45.1°
Sets 03:10:46 0° 94° (E) 4,859 12.2 -44.7°
